Location: Carrières
(48.9495°N, 2.0407°E)
Time: 03:16:37
(UTC+00:00)

Cosmos 44 - Visible Passes

Search period start: 29 September 2023 00:00
Search period end: 09 October 2023 00:00
Orbit: 570 x 788 km, 65.1° (Epoch: 28 September)

Date Brightness Start Highest point End Pass type
(mag) Time Alt. Az. Time Alt. Az. Time Alt. Az.
29 Sep 5.8 01:29:32 19° ENE 01:29:32 19° ENE 01:31:19 10° NE visible
29 Sep 3.9 03:07:55 50° NW 03:07:55 50° NW 03:12:55 10° NNE visible
29 Sep 5.3 04:46:29 10° WNW 04:50:10 19° NNW 04:53:56 10° NNE visible
30 Sep 4.9 02:05:21 34° NE 02:05:21 34° NE 02:08:23 10° NE visible
30 Sep 4.7 03:43:44 25° NW 03:44:52 28° NNW 03:49:28 10° NNE visible
01 Oct 6.2 01:02:45 14° NE 01:02:45 14° NE 01:03:31 10° NE visible
01 Oct 4.5 02:41:08 40° N 02:41:08 40° N 02:45:04 10° NNE visible
01 Oct 5.4 04:19:31 13° NW 04:22:22 18° NNW 04:26:05 10° NNE visible
02 Oct 5.6 01:38:31 23° NE 01:38:31 23° NE 01:40:33 10° NE visible
02 Oct 4.8 03:16:53 27° NW 03:17:03 27° NNW 03:21:37 10° NNE visible
02 Oct 5.7 04:57:09 10° NW 05:00:06 15° N 05:03:05 10° NNE visible
03 Oct 5.1 02:14:15 30° NNE 02:14:15 30° NNE 02:17:12 10° NNE visible
03 Oct 5.4 03:52:38 15° NW 03:54:34 18° NNW 03:58:15 10° NNE visible
04 Oct 6.1 01:11:35 16° NE 01:11:35 16° NE 01:12:41 10° NE visible
04 Oct 5.1 02:49:58 25° NNW 02:49:58 25° NNW 02:53:45 10° NNE visible
04 Oct 5.7 04:29:23 10° NW 04:32:19 15° N 04:35:16 10° NNE visible
05 Oct 5.7 01:47:17 22° NNE 01:47:17 22° NNE 01:49:21 10° NNE visible
05 Oct 5.4 03:25:40 17° NNW 03:26:46 18° NNW 03:30:23 10° NNE visible
05 Oct 5.8 05:07:08 10° NNW 05:10:08 15° N 05:13:08 10° NE visible
06 Oct 6.4 00:44:36 11° NE 00:44:36 11° NE 00:44:50 10° NE visible
06 Oct 5.4 02:22:58 22° N 02:22:58 22° N 02:25:53 10° NNE visible
06 Oct 5.8 04:01:37 10° NW 04:04:31 14° N 04:07:28 10° NNE visible
07 Oct 6.1 01:20:16 16° NNE 01:20:16 16° NNE 01:21:28 10° NNE visible
07 Oct 5.5 02:58:39 17° NNW 02:58:58 17° NNW 03:02:32 10° NNE visible
07 Oct 5.8 04:39:18 10° NNW 04:42:20 15° N 04:45:22 10° NE visible
08 Oct 5.8 01:55:57 19° N 01:55:57 19° N 01:58:01 10° NNE visible
08 Oct 5.8 03:34:20 11° NNW 03:36:43 14° N 03:39:39 10° NNE visible
08 Oct 5.7 05:16:13 10° NNW 05:20:03 19° NNE 05:23:52 10° ENE visible
